Tracking 23645 objects as of 21-Sep-2021
HD Live streaming from Space Station
objects crossing your sky now

EKRAN 6

Track EKRAN 6 now!
EKRAN 6 is classified as:


NORAD ID: 12120
Int'l Code: 1980-104A
Perigee: 35,786.0 km
Apogee: 35,826.2 km
Inclination: 10.3 °
Period: 1,436.7 minutes
Semi major axis: 42177 km
RCS: 6.3095 m2 (large)
Launch date: December 26, 1980
Source: Commonwealth of Independent States (former USSR) (CIS)
Launch site: TYURATAM MISSILE AND SPACE COMPLEX (TTMTR)
aabbcc
Your satellite tracking list
Your tracking list is empty




NASA's NSSDC Master Catalog

Two Line Element Set (TLE):
1 12120U 80104A   21264.17759519 -.00000003  00000-0  00000-0 0  9992
2 12120  10.3036 308.4476 0004762  49.8836 129.0456  1.00227669110068
Source of the keplerian elements: AFSPC